When you browse on this site, cookies collect data to enhance your experience and personalize the content and advertising you see.
Visit our Privacy Policy to learn more. By continuing to use the site, you agree to this use of cookies and data.
  • In Czech Republic
  • List of Countries
  • For 7 days
  • Water Temperature
  • Weather Map
  • Weather Widgets
  • user-avatar
    Login

    Hourly Weather Escaldes-Engordany

    Today, 15 September, Sunday

    Time Temperature Precipitation Wind Pressure Humidity
    00:00 +13°C° 0 mm 1 mps 645 mmHg 71%
    01:00 +13°C° 0 mm 1 mps 645 mmHg 68%
    02:00 +13°C° 0 mm 1 mps 644 mmHg 64%
    03:00 +13°C° 0 mm 1 mps 644 mmHg 61%
    04:00 +13°C° 0 mm 1 mps 644 mmHg 62%
    05:00 +13°C° 0 mm 1 mps 644 mmHg 63%
    06:00 +13°C° 0 mm 1 mps 644 mmHg 64%
    07:00 +16°C° 0 mm 1 mps 645 mmHg 60%
    08:00 +19°C° 0 mm 1 mps 646 mmHg 56%
    09:00 +22°C° 0 mm 1 mps 647 mmHg 52%
    10:00 +23°C° 0.2 mm 1 mps 647 mmHg 51%
    11:00 +24°C° 0.2 mm 1 mps 647 mmHg 49%
    12:00 +24°C° 0.2 mm 1 mps 647 mmHg 48%
    13:00 +24°C° 0.3 mm 1 mps 647 mmHg 47%
    14:00 +24°C° 0.3 mm 2 mps 646 mmHg 47%
    15:00 +24°C° 0.3 mm 2 mps 646 mmHg 46%
    16:00 +22°C° 0 mm 1 mps 645 mmHg 55%
    17:00 +20°C° 0 mm 1 mps 644 mmHg 63%
    18:00 +16°C° 0 mm 0 mps 644 mmHg 71%
    19:00 +16°C° 0 mm 0 mps 643 mmHg 72%
    20:00 +16°C° 0 mm 1 mps 643 mmHg 73%
    21:00 +16°C° 0 mm 1 mps 643 mmHg 74%
    22:00 +15°C° 0 mm 1 mps 643 mmHg 74%
    23:00 +15°C° 0 mm 1 mps 643 mmHg 74%

    Tomorrow, 16 September, Monday

    Time Temperature Precipitation Wind Pressure Humidity
    00:00 +15°C° 0 mm 1 mps 643 mmHg 74%
    01:00 +15°C° 0.1 mm 1 mps 643 mmHg 75%
    02:00 +14°C° 0.1 mm 1 mps 642 mmHg 77%
    03:00 +14°C° 0.1 mm 1 mps 642 mmHg 78%
    04:00 +14°C° 0.2 mm 1 mps 642 mmHg 79%
    05:00 +14°C° 0.2 mm 1 mps 642 mmHg 80%
    06:00 +14°C° 0.2 mm 1 mps 642 mmHg 81%
    07:00 +16°C° 0.1 mm 1 mps 643 mmHg 75%
    08:00 +19°C° 0.1 mm 1 mps 644 mmHg 70%
    09:00 +21°C° 0.1 mm 1 mps 644 mmHg 64%
    10:00 +22°C° 0.3 mm 1 mps 644 mmHg 62%
    11:00 +23°C° 0.3 mm 2 mps 644 mmHg 59%
    12:00 +23°C° 0.3 mm 2 mps 644 mmHg 57%
    13:00 +23°C° 0.3 mm 2 mps 644 mmHg 58%
    14:00 +23°C° 0.3 mm 2 mps 644 mmHg 58%
    15:00 +23°C° 0.3 mm 2 mps 643 mmHg 59%
    16:00 +21°C° 0.3 mm 1 mps 643 mmHg 68%
    17:00 +19°C° 0.3 mm 1 mps 642 mmHg 76%
    18:00 +16°C° 0.3 mm 1 mps 641 mmHg 84%
    19:00 +16°C° 0 mm 1 mps 641 mmHg 86%
    20:00 +15°C° 0 mm 1 mps 641 mmHg 88%
    21:00 +15°C° 0 mm 1 mps 641 mmHg 90%
    22:00 +14°C° 0 mm 1 mps 641 mmHg 90%
    23:00 +14°C° 0 mm 1 mps 641 mmHg 90%

    Day after tomorrow, 17 September, Tuesday

    Time Temperature Precipitation Wind Pressure Humidity
    00:00 +13°C° 0 mm 2 mps 640 mmHg 90%
    01:00 +13°C° 0 mm 1 mps 640 mmHg 90%
    02:00 +13°C° 0 mm 1 mps 640 mmHg 90%
    03:00 +13°C° 0 mm 1 mps 640 mmHg 89%
    04:00 +13°C° 0 mm 1 mps 640 mmHg 88%
    05:00 +13°C° 0 mm 1 mps 640 mmHg 87%
    06:00 +13°C° 0 mm 1 mps 640 mmHg 86%
    07:00 +15°C° 0 mm 1 mps 641 mmHg 78%
    08:00 +19°C° 0 mm 1 mps 642 mmHg 69%
    09:00 +20°C° 0 mm 0 mps 643 mmHg 61%
    10:00 +22°C° 0 mm 1 mps 643 mmHg 58%
    11:00 +23°C° 0 mm 1 mps 643 mmHg 55%
    12:00 +24°C° 0 mm 1 mps 642 mmHg 52%
    13:00 +23°C° 0.6 mm 1 mps 642 mmHg 59%
    14:00 +22°C° 0.6 mm 1 mps 641 mmHg 66%
    15:00 +21°C° 0.6 mm 1 mps 640 mmHg 73%
    16:00 +20°C° 0.9 mm 1 mps 640 mmHg 77%
    17:00 +16°C° 0.9 mm 0 mps 639 mmHg 81%
    18:00 +15°C° 0.9 mm 0 mps 639 mmHg 85%
    19:00 +14°C° 0.6 mm 0 mps 639 mmHg 86%
    20:00 +15°C° 0.6 mm 1 mps 639 mmHg 87%
    21:00 +14°C° 0.6 mm 1 mps 639 mmHg 87%
    22:00 +14°C° 0.5 mm 1 mps 639 mmHg 88%
    23:00 +14°C° 0.5 mm 1 mps 638 mmHg 88%

    18 September, Wednesday

    Time Temperature Precipitation Wind Pressure Humidity
    00:00 +13°C° 0.5 mm 1 mps 638 mmHg 88%
    01:00 +13°C° 0.1 mm 1 mps 638 mmHg 88%
    02:00 +13°C° 0.1 mm 1 mps 638 mmHg 88%
    03:00 +13°C° 0.1 mm 1 mps 638 mmHg 88%
    04:00 +13°C° 0.1 mm 1 mps 638 mmHg 88%
    05:00 +13°C° 0.1 mm 1 mps 638 mmHg 89%
    06:00 +12°C° 0.1 mm 1 mps 638 mmHg 89%
    07:00 +15°C° 0.1 mm 1 mps 639 mmHg 83%
    08:00 +18°C° 0.1 mm 1 mps 640 mmHg 76%
    09:00 +20°C° 0.1 mm 1 mps 641 mmHg 70%
    10:00 +21°C° 0.6 mm 1 mps 641 mmHg 67%
    11:00 +21°C° 0.6 mm 1 mps 641 mmHg 64%
    12:00 +22°C° 0.6 mm 1 mps 641 mmHg 61%
    13:00 +21°C° 1.4 mm 1 mps 641 mmHg 63%
    14:00 +21°C° 1.4 mm 1 mps 640 mmHg 66%
    15:00 +20°C° 1.4 mm 1 mps 640 mmHg 68%
    16:00 +19°C° 1.2 mm 1 mps 639 mmHg 74%
    17:00 +16°C° 1.2 mm 1 mps 639 mmHg 80%
    18:00 +15°C° 1.2 mm 1 mps 638 mmHg 86%
    19:00 +14°C° 1.3 mm 1 mps 639 mmHg 88%
    20:00 +14°C° 1.3 mm 1 mps 639 mmHg 89%
    21:00 +13°C° 1.3 mm 1 mps 639 mmHg 91%
    22:00 +13°C° 0.4 mm 1 mps 639 mmHg 90%
    23:00 +13°C° 0.4 mm 1 mps 639 mmHg 89%

    19 September, Thursday

    Time Temperature Precipitation Wind Pressure Humidity
    00:00 +13°C° 0.4 mm 1 mps 639 mmHg 88%
    01:00 +12°C° 0.1 mm 1 mps 639 mmHg 88%
    02:00 +12°C° 0.1 mm 1 mps 639 mmHg 88%
    03:00 +12°C° 0.1 mm 1 mps 638 mmHg 87%
    04:00 +12°C° 0.1 mm 1 mps 639 mmHg 88%
    05:00 +11°C° 0.1 mm 1 mps 639 mmHg 88%
    06:00 +11°C° 0.1 mm 1 mps 639 mmHg 89%
    07:00 +13°C° 0.2 mm 1 mps 640 mmHg 84%
    08:00 +15°C° 0.2 mm 1 mps 641 mmHg 78%
    09:00 +18°C° 0.2 mm 1 mps 642 mmHg 73%
    10:00 +18°C° 0.9 mm 1 mps 642 mmHg 73%
    11:00 +19°C° 0.9 mm 1 mps 642 mmHg 73%
    12:00 +19°C° 0.9 mm 1 mps 642 mmHg 73%
    13:00 +19°C° 1.3 mm 1 mps 641 mmHg 75%
    14:00 +18°C° 1.3 mm 1 mps 641 mmHg 77%
    15:00 +18°C° 1.3 mm 1 mps 641 mmHg 79%
    16:00 +15°C° 0.8 mm 1 mps 641 mmHg 83%
    17:00 +14°C° 0.8 mm 1 mps 640 mmHg 87%
    18:00 +13°C° 0.8 mm 1 mps 640 mmHg 92%
    19:00 +12°C° 0 mm 1 mps 640 mmHg 92%
    20:00 +11°C° 0 mm 1 mps 640 mmHg 92%
    21:00 +10°C° 0 mm 1 mps 641 mmHg 92%
    22:00 +10°C° 0 mm 1 mps 641 mmHg 88%
    23:00 +10°C° 0 mm 1 mps 641 mmHg 85%

    20 September, Friday

    Time Temperature Precipitation Wind Pressure Humidity
    00:00 +10°C° 0 mm 1 mps 641 mmHg 82%
    01:00 +10°C° 0 mm 1 mps 640 mmHg 78%
    02:00 +9°C° 0 mm 1 mps 640 mmHg 75%
    03:00 +9°C° 0 mm 1 mps 640 mmHg 72%
    04:00 +9°C° 0 mm 1 mps 640 mmHg 71%
    05:00 +9°C° 0 mm 1 mps 640 mmHg 70%
    06:00 +9°C° 0 mm 1 mps 641 mmHg 69%
    07:00 +12°C° 0 mm 1 mps 642 mmHg 63%
    08:00 +15°C° 0 mm 1 mps 643 mmHg 57%
    09:00 +18°C° 0 mm 1 mps 645 mmHg 51%
    10:00 +19°C° 0 mm 1 mps 645 mmHg 49%
    11:00 +20°C° 0 mm 1 mps 645 mmHg 48%
    12:00 +20°C° 0 mm 2 mps 645 mmHg 46%
    13:00 +20°C° 0 mm 2 mps 645 mmHg 50%
    14:00 +20°C° 0 mm 2 mps 645 mmHg 54%
    15:00 +19°C° 0 mm 2 mps 644 mmHg 57%
    16:00 +17°C° 0 mm 2 mps 644 mmHg 68%
    17:00 +16°C° 0 mm 1 mps 644 mmHg 79%
    18:00 +14°C° 0 mm 1 mps 643 mmHg 90%
    19:00 +13°C° 0 mm 1 mps 643 mmHg 92%
    20:00 +13°C° 0 mm 1 mps 644 mmHg 93%
    21:00 +13°C° 0 mm 1 mps 644 mmHg 94%
    22:00 +12°C° 0 mm 1 mps 644 mmHg 94%
    23:00 +12°C° 0 mm 1 mps 644 mmHg 93%
    Show more